owner,sensor,date,latitude,longitude,vertical_datum,mass_concentration_of_oxygen_in_sea_water,qcFlag 
DISL,ioos:station:DISL:CATA:1,2017-07-01T00:00:00Z,30.3085,-88.1395,2.372,8.63,1111122 
DISL,ioos:station:DISL:CATA:1,2017-07-01T00:30:00Z,30.3085,-88.1395,2.362,8.55,1111122 
DISL,ioos:station:DISL:CATA:1,2017-07-01T01:00:00Z,30.3085,-88.1395,2.347,8.4,1111122 
DISL,ioos:station:DISL:CATA:1,2017-07-01T01:30:00Z,30.3085,-88.1395,2.334,8.38,1111122 
DISL,ioos:station:DISL:CATA:1,2017-07-01T02:00:00Z,30.3085,-88.1395,2.321,8.13,1111122 
DISL,ioos:station:DISL:CATA:1,2017-07-01T02:30:00Z,30.3085,-88.1395,2.312,7.77,1111122 
DISL,ioos:station:DISL:CATA:1,2017-07-01T03:00:00Z,30.3085,-88.1395,2.293,7.75,1111122 
DISL,ioos:station:DISL:CATA:1,2017-07-01T03:30:00Z,30.3085,-88.1395,2.277,7.74,1111122 
DISL,ioos:station:DISL:CATA:1,2017-07-01T04:00:00Z,30.3085,-88.1395,2.271,7.83,1111122 
DISL,ioos:station:DISL:CATA:1,2017-07-01T04:30:00Z,30.3085,-88.1395,2.278,7.77,1111122 
DISL,ioos:station:DISL:CATA:1,2017-07-01T05:00:00Z,30.3085,-88.1395,2.295,7.91,1111122 
DISL,ioos:station:DISL:CATA:1,2017-07-01T05:30:00Z,30.3085,-88.1395,2.315,7.9,1111122 
DISL,ioos:station:DISL:CATA:1,2017-07-01T06:00:00Z,30.3085,-88.1395,2.352,7.55,1111122 
DISL,ioos:station:DISL:CATA:1,2017-07-01T06:30:00Z,30.3085,-88.1395,2.399,7.48,1111122 
DISL,ioos:station:DISL:CATA:1,2017-07-01T07:00:00Z,30.3085,-88.1395,2.397,7.57,1111122 
DISL,ioos:station:DISL:CATA:1,2017-07-01T07:30:00Z,30.3085,-88.1395,2.397,7.65,1111122 
DISL,ioos:station:DISL:CATA:1,2017-07-01T08:00:00Z,30.3085,-88.1395,2.42,7.66,1111122 
DISL,ioos:station:DISL:CATA:1,2017-07-01T08:30:00Z,30.3085,-88.1395,2.433,7.66,1111122 
DISL,ioos:station:DISL:CATA:1,2017-07-01T09:00:00Z,30.3085,-88.1395,2.45,7.5,1111122 
DISL,ioos:station:DISL:CATA:1,2017-07-01T09:30:00Z,30.3085,-88.1395,2.433,7.69,1111122 
DISL,ioos:station:DISL:CATA:1,2017-07-01T10:00:00Z,30.3085,-88.1395,2.433,7.67,1111122 
DISL,ioos:station:DISL:CATA:1,2017-07-01T10:30:00Z,30.3085,-88.1395,2.447,7.51,1111122 
DISL,ioos:station:DISL:CATA:1,2017-07-01T11:00:00Z,30.3085,-88.1395,2.444,7.36,1111122 
DISL,ioos:station:DISL:CATA:1,2017-07-01T11:30:00Z,30.3085,-88.1395,2.438,7.33,1111122 
DISL,ioos:station:DISL:CATA:1,2017-07-01T12:00:00Z,30.3085,-88.1395,2.438,7.21,1111122 
DISL,ioos:station:DISL:CATA:1,2017-07-01T12:30:00Z,30.3085,-88.1395,2.426,7.5,1111122 
DISL,ioos:station:DISL:CATA:1,2017-07-01T13:00:00Z,30.3085,-88.1395,2.426,7.31,1111122 
DISL,ioos:station:DISL:CATA:1,2017-07-01T13:30:00Z,30.3085,-88.1395,2.416,7.57,1111122 
DISL,ioos:station:DISL:CATA:1,2017-07-01T14:00:00Z,30.3085,-88.1395,2.415,7.78,1111122 
DISL,ioos:station:DISL:CATA:1,2017-07-01T14:30:00Z,30.3085,-88.1395,2.421,7.91,1111122 
DISL,ioos:station:DISL:CATA:1,2017-07-01T15:00:00Z,30.3085,-88.1395,2.424,8.01,1111122 
DISL,ioos:station:DISL:CATA:1,2017-07-01T15:30:00Z,30.3085,-88.1395,2.386,8.18,1111122 
DISL,ioos:station:DISL:CATA:1,2017-07-01T16:00:00Z,30.3085,-88.1395,2.393,8.08,1111122 
DISL,ioos:station:DISL:CATA:1,2017-07-01T16:30:00Z,30.3085,-88.1395,2.356,8.01,1111122 
DISL,ioos:station:DISL:CATA:1,2017-07-01T17:00:00Z,30.3085,-88.1395,2.3,8.19,1111122 
DISL,ioos:station:DISL:CATA:1,2017-07-01T17:30:00Z,30.3085,-88.1395,2.315,8.33,1111122 
DISL,ioos:station:DISL:CATA:1,2017-07-01T18:00:00Z,30.3085,-88.1395,2.334,8.88,1111122 
DISL,ioos:station:DISL:CATA:1,2017-07-01T18:30:00Z,30.3085,-88.1395,2.295,9.21,1111122 
DISL,ioos:station:DISL:CATA:1,2017-07-01T19:00:00Z,30.3085,-88.1395,2.291,9.23,1111122 
DISL,ioos:station:DISL:CATA:1,2017-07-01T19:30:00Z,30.3085,-88.1395,2.283,9.36,1111122 
DISL,ioos:station:DISL:CATA:1,2017-07-01T20:00:00Z,30.3085,-88.1395,2.276,9.34,1111122 
DISL,ioos:station:DISL:CATA:1,2017-07-01T20:30:00Z,30.3085,-88.1395,2.281,9.35,1111122 
DISL,ioos:station:DISL:CATA:1,2017-07-01T21:00:00Z,30.3085,-88.1395,2.276,9.25,1111122 
DISL,ioos:station:DISL:CATA:1,2017-07-01T21:30:00Z,30.3085,-88.1395,2.276,9.26,1111122 
DISL,ioos:station:DISL:CATA:1,2017-07-01T22:00:00Z,30.3085,-88.1395,2.276,9.38,1111122 
DISL,ioos:station:DISL:CATA:1,2017-07-01T22:30:00Z,30.3085,-88.1395,2.283,9.79,1111122 
DISL,ioos:station:DISL:CATA:1,2017-07-01T23:00:00Z,30.3085,-88.1395,2.276,10.01,1111122 
DISL,ioos:station:DISL:CATA:1,2017-07-01T23:30:00Z,30.3085,-88.1395,2.267,9.94,1111122 
DISL,ioos:station:DISL:CATA:1,2017-07-02T00:00:00Z,30.3085,-88.1395,2.269,9.35,1111122 
DISL,ioos:station:DISL:CATA:1,2017-07-02T00:30:00Z,30.3085,-88.1395,2.279,9.25,1111122 
DISL,ioos:station:DISL:CATA:1,2017-07-02T01:00:00Z,30.3085,-88.1395,2.286,9.13,1111122 
DISL,ioos:station:DISL:CATA:1,2017-07-02T01:30:00Z,30.3085,-88.1395,2.293,8.83,1111122 
DISL,ioos:station:DISL:CATA:1,2017-07-02T02:00:00Z,30.3085,-88.1395,2.305,8.77,1111122 
DISL,ioos:station:DISL:CATA:1,2017-07-02T02:30:00Z,30.3085,-88.1395,2.308,8.55,1111122 
DISL,ioos:station:DISL:CATA:1,2017-07-02T03:00:00Z,30.3085,-88.1395,2.31,8.25,1111122 
DISL,ioos:station:DISL:CATA:1,2017-07-02T03:30:00Z,30.3085,-88.1395,2.32,8.34,1111122 
DISL,ioos:station:DISL:CATA:1,2017-07-02T04:00:00Z,30.3085,-88.1395,2.31,8.47,1111122 
DISL,ioos:station:DISL:CATA:1,2017-07-02T04:30:00Z,30.3085,-88.1395,2.29,8.51,1111122 
DISL,ioos:station:DISL:CATA:1,2017-07-02T05:00:00Z,30.3085,-88.1395,2.281,8.26,1111122 
DISL,ioos:station:DISL:CATA:1,2017-07-02T05:30:00Z,30.3085,-88.1395,2.276,8.4,1111122 
DISL,ioos:station:DISL:CATA:1,2017-07-02T06:00:00Z,30.3085,-88.1395,2.285,8.39,1111122 
DISL,ioos:station:DISL:CATA:1,2017-07-02T06:30:00Z,30.3085,-88.1395,2.291,7.97,1111122 
DISL,ioos:station:DISL:CATA:1,2017-07-02T07:00:00Z,30.3085,-88.1395,2.273,7.82,1111122 
DISL,ioos:station:DISL:CATA:1,2017-07-02T07:30:00Z,30.3085,-88.1395,2.268,7.91,1111122 
DISL,ioos:station:DISL:CATA:1,2017-07-02T08:00:00Z,30.3085,-88.1395,2.313,8.02,1111122 
DISL,ioos:station:DISL:CATA:1,2017-07-02T08:30:00Z,30.3085,-88.1395,2.345,7.88,1111122 
DISL,ioos:station:DISL:CATA:1,2017-07-02T09:00:00Z,30.3085,-88.1395,2.377,7.97,1111122 
DISL,ioos:station:DISL:CATA:1,2017-07-02T09:30:00Z,30.3085,-88.1395,2.376,7.91,1111122 
DISL,ioos:station:DISL:CATA:1,2017-07-02T10:00:00Z,30.3085,-88.1395,2.388,7.95,1111122 
DISL,ioos:station:DISL:CATA:1,2017-07-02T10:30:00Z,30.3085,-88.1395,2.396,7.81,1111122 
DISL,ioos:station:DISL:CATA:1,2017-07-02T11:00:00Z,30.3085,-88.1395,2.406,7.79,1111122 
DISL,ioos:station:DISL:CATA:1,2017-07-02T11:30:00Z,30.3085,-88.1395,2.419,7.51,1111122 
DISL,ioos:station:DISL:CATA:1,2017-07-02T12:00:00Z,30.3085,-88.1395,2.423,7.46,1111122 
DISL,ioos:station:DISL:CATA:1,2017-07-02T12:30:00Z,30.3085,-88.1395,2.437,7.67,1111122 
DISL,ioos:station:DISL:CATA:1,2017-07-02T13:00:00Z,30.3085,-88.1395,2.453,7.84,1111122 
DISL,ioos:station:DISL:CATA:1,2017-07-02T13:30:00Z,30.3085,-88.1395,2.463,8.02,1111122 
DISL,ioos:station:DISL:CATA:1,2017-07-02T14:00:00Z,30.3085,-88.1395,2.468,8.03,1111122 
DISL,ioos:station:DISL:CATA:1,2017-07-02T14:30:00Z,30.3085,-88.1395,2.475,8.2,1111122 
DISL,ioos:station:DISL:CATA:1,2017-07-02T15:00:00Z,30.3085,-88.1395,2.454,8.19,1111122 
DISL,ioos:station:DISL:CATA:1,2017-07-02T15:30:00Z,30.3085,-88.1395,2.44,8.23,1111122 
DISL,ioos:station:DISL:CATA:1,2017-07-02T16:00:00Z,30.3085,-88.1395,2.408,8.13,1111122 
DISL,ioos:station:DISL:CATA:1,2017-07-02T16:30:00Z,30.3085,-88.1395,2.392,8.36,1111122 
DISL,ioos:station:DISL:CATA:1,2017-07-02T17:00:00Z,30.3085,-88.1395,2.364,8.09,1111122 
DISL,ioos:station:DISL:CATA:1,2017-07-02T17:30:00Z,30.3085,-88.1395,2.344,8.85,1111122 
DISL,ioos:station:DISL:CATA:1,2017-07-02T18:00:00Z,30.3085,-88.1395,2.324,8.91,1111122 
DISL,ioos:station:DISL:CATA:1,2017-07-02T18:30:00Z,30.3085,-88.1395,2.298,9.42,1111122 
DISL,ioos:station:DISL:CATA:1,2017-07-02T19:00:00Z,30.3085,-88.1395,2.283,9.62,1111122 
DISL,ioos:station:DISL:CATA:1,2017-07-02T19:30:00Z,30.3085,-88.1395,2.259,9.49,1111122 
DISL,ioos:station:DISL:CATA:1,2017-07-02T20:00:00Z,30.3085,-88.1395,2.255,9.62,1111122 
DISL,ioos:station:DISL:CATA:1,2017-07-02T20:30:00Z,30.3085,-88.1395,2.242,9.7,1111122 
DISL,ioos:station:DISL:CATA:1,2017-07-02T21:00:00Z,30.3085,-88.1395,2.241,9.42,1111122 
DISL,ioos:station:DISL:CATA:1,2017-07-02T21:30:00Z,30.3085,-88.1395,2.234,9.1,1111122 
DISL,ioos:station:DISL:CATA:1,2017-07-02T22:00:00Z,30.3085,-88.1395,2.215,8.64,1111122 
DISL,ioos:station:DISL:CATA:1,2017-07-02T22:30:00Z,30.3085,-88.1395,2.21,8.57,1111122 
DISL,ioos:station:DISL:CATA:1,2017-07-02T23:00:00Z,30.3085,-88.1395,2.202,8.6,1111122 
DISL,ioos:station:DISL:CATA:1,2017-07-02T23:30:00Z,30.3085,-88.1395,2.203,8.41,1111122 
DISL,ioos:station:DISL:CATA:1,2017-07-03T00:00:00Z,30.3085,-88.1395,2.202,8.46,1111122 
DISL,ioos:station:DISL:CATA:1,2017-07-03T00:30:00Z,30.3085,-88.1395,2.203,8.28,1111122 
DISL,ioos:station:DISL:CATA:1,2017-07-03T01:00:00Z,30.3085,-88.1395,2.201,8.13,1111122 
DISL,ioos:station:DISL:CATA:1,2017-07-03T01:30:00Z,30.3085,-88.1395,2.207,8.12,1111122 
DISL,ioos:station:DISL:CATA:1,2017-07-03T02:00:00Z,30.3085,-88.1395,2.223,8.03,1111122 
DISL,ioos:station:DISL:CATA:1,2017-07-03T02:30:00Z,30.3085,-88.1395,2.233,8.13,1111122 
DISL,ioos:station:DISL:CATA:1,2017-07-03T03:00:00Z,30.3085,-88.1395,2.243,8.17,1111122 
DISL,ioos:station:DISL:CATA:1,2017-07-03T03:30:00Z,30.3085,-88.1395,2.271,8.12,1111122 
DISL,ioos:station:DISL:CATA:1,2017-07-03T04:00:00Z,30.3085,-88.1395,2.272,7.98,1111122 
DISL,ioos:station:DISL:CATA:1,2017-07-03T04:30:00Z,30.3085,-88.1395,2.276,7.74,1111122 
DISL,ioos:station:DISL:CATA:1,2017-07-03T05:00:00Z,30.3085,-88.1395,2.287,7.47,1111122 
DISL,ioos:station:DISL:CATA:1,2017-07-03T05:30:00Z,30.3085,-88.1395,2.281,7.52,1111122 
DISL,ioos:station:DISL:CATA:1,2017-07-03T06:00:00Z,30.3085,-88.1395,2.295,7.51,1111122 
DISL,ioos:station:DISL:CATA:1,2017-07-03T06:30:00Z,30.3085,-88.1395,2.301,7.29,1111122 
DISL,ioos:station:DISL:CATA:1,2017-07-03T07:00:00Z,30.3085,-88.1395,2.309,7.05,1111122 
DISL,ioos:station:DISL:CATA:1,2017-07-03T07:30:00Z,30.3085,-88.1395,2.327,7.08,1111122 
DISL,ioos:station:DISL:CATA:1,2017-07-03T08:00:00Z,30.3085,-88.1395,2.346,6.69,1111122 
DISL,ioos:station:DISL:CATA:1,2017-07-03T08:30:00Z,30.3085,-88.1395,2.361,7.51,1111122 
DISL,ioos:station:DISL:CATA:1,2017-07-03T09:00:00Z,30.3085,-88.1395,2.39,7.61,1111122 
DISL,ioos:station:DISL:CATA:1,2017-07-03T09:30:00Z,30.3085,-88.1395,2.405,7.75,1111122 
DISL,ioos:station:DISL:CATA:1,2017-07-03T10:00:00Z,30.3085,-88.1395,2.423,7.62,1111122 
DISL,ioos:station:DISL:CATA:1,2017-07-03T10:30:00Z,30.3085,-88.1395,2.437,7.39,1111122 
DISL,ioos:station:DISL:CATA:1,2017-07-03T11:00:00Z,30.3085,-88.1395,2.454,7.33,1111122 
DISL,ioos:station:DISL:CATA:1,2017-07-03T11:30:00Z,30.3085,-88.1395,2.456,7.9,1111122 
DISL,ioos:station:DISL:CATA:1,2017-07-03T12:00:00Z,30.3085,-88.1395,2.466,7.93,1111122 
DISL,ioos:station:DISL:CATA:1,2017-07-03T12:30:00Z,30.3085,-88.1395,2.465,7.86,1111122 
DISL,ioos:station:DISL:CATA:1,2017-07-03T13:00:00Z,30.3085,-88.1395,2.463,7.23,1111122 
DISL,ioos:station:DISL:CATA:1,2017-07-03T13:30:00Z,30.3085,-88.1395,2.456,6.5,1111122 
DISL,ioos:station:DISL:CATA:1,2017-07-03T14:00:00Z,30.3085,-88.1395,2.458,7.11,1111122 
DISL,ioos:station:DISL:CATA:1,2017-07-03T14:30:00Z,30.3085,-88.1395,2.453,7.36,1111122 
DISL,ioos:station:DISL:CATA:1,2017-07-03T15:00:00Z,30.3085,-88.1395,2.453,7.28,1111122 
DISL,ioos:station:DISL:CATA:1,2017-07-03T15:30:00Z,30.3085,-88.1395,2.439,7.5,1111122 
DISL,ioos:station:DISL:CATA:1,2017-07-03T16:00:00Z,30.3085,-88.1395,2.407,8.02,1111122 
DISL,ioos:station:DISL:CATA:1,2017-07-03T16:30:00Z,30.3085,-88.1395,2.387,8.25,1111122 
DISL,ioos:station:DISL:CATA:1,2017-07-03T17:00:00Z,30.3085,-88.1395,2.36,8.23,1111122 
DISL,ioos:station:DISL:CATA:1,2017-07-03T17:30:00Z,30.3085,-88.1395,2.333,8.1,1111122 
DISL,ioos:station:DISL:CATA:1,2017-07-03T18:00:00Z,30.3085,-88.1395,2.301,8.3,1111122 
DISL,ioos:station:DISL:CATA:1,2017-07-03T18:30:00Z,30.3085,-88.1395,2.274,8.16,1111122 
DISL,ioos:station:DISL:CATA:1,2017-07-03T19:00:00Z,30.3085,-88.1395,2.26,7.85,1111122 
DISL,ioos:station:DISL:CATA:1,2017-07-03T19:30:00Z,30.3085,-88.1395,2.23,7.95,1111122 
DISL,ioos:station:DISL:CATA:1,2017-07-03T20:00:00Z,30.3085,-88.1395,2.215,8.29,1111122 
DISL,ioos:station:DISL:CATA:1,2017-07-03T20:30:00Z,30.3085,-88.1395,2.2,8.74,1111122 
DISL,ioos:station:DISL:CATA:1,2017-07-03T21:00:00Z,30.3085,-88.1395,2.189,8.87,1111122 
DISL,ioos:station:DISL:CATA:1,2017-07-03T21:30:00Z,30.3085,-88.1395,2.181,8.87,1111122 
DISL,ioos:station:DISL:CATA:1,2017-07-03T22:00:00Z,30.3085,-88.1395,2.165,9.04,1111122 
DISL,ioos:station:DISL:CATA:1,2017-07-03T22:30:00Z,30.3085,-88.1395,2.157,9.09,1111122 
DISL,ioos:station:DISL:CATA:1,2017-07-03T23:00:00Z,30.3085,-88.1395,2.156,9.08,1111122 
DISL,ioos:station:DISL:CATA:1,2017-07-03T23:30:00Z,30.3085,-88.1395,2.158,9.17,1111122 
DISL,ioos:station:DISL:CATA:1,2017-07-04T00:00:00Z,30.3085,-88.1395,2.158,8.92,1111122 
DISL,ioos:station:DISL:CATA:1,2017-07-04T00:30:00Z,30.3085,-88.1395,2.149,8.53,1111122 
DISL,ioos:station:DISL:CATA:1,2017-07-04T01:00:00Z,30.3085,-88.1395,2.165,8.61,1111122 
DISL,ioos:station:DISL:CATA:1,2017-07-04T01:30:00Z,30.3085,-88.1395,2.174,8.26,1111122 
DISL,ioos:station:DISL:CATA:1,2017-07-04T02:00:00Z,30.3085,-88.1395,2.196,8.17,1111122 
DISL,ioos:station:DISL:CATA:1,2017-07-04T02:30:00Z,30.3085,-88.1395,2.207,8.34,1111122 
DISL,ioos:station:DISL:CATA:1,2017-07-04T03:00:00Z,30.3085,-88.1395,2.23,8.18,1111122 
DISL,ioos:station:DISL:CATA:1,2017-07-04T03:30:00Z,30.3085,-88.1395,2.239,7.73,1111122 
DISL,ioos:station:DISL:CATA:1,2017-07-04T04:00:00Z,30.3085,-88.1395,2.247,8.01,1111122 
DISL,ioos:station:DISL:CATA:1,2017-07-04T04:30:00Z,30.3085,-88.1395,2.267,7.93,1111122 
DISL,ioos:station:DISL:CATA:1,2017-07-04T05:00:00Z,30.3085,-88.1395,2.272,7.98,1111122 
DISL,ioos:station:DISL:CATA:1,2017-07-04T05:30:00Z,30.3085,-88.1395,2.293,8.04,1111122 
DISL,ioos:station:DISL:CATA:1,2017-07-04T06:00:00Z,30.3085,-88.1395,2.305,7.89,1111122 
DISL,ioos:station:DISL:CATA:1,2017-07-04T06:30:00Z,30.3085,-88.1395,2.324,7.87,1111122 
DISL,ioos:station:DISL:CATA:1,2017-07-04T07:00:00Z,30.3085,-88.1395,2.345,7.61,1111122 
DISL,ioos:station:DISL:CATA:1,2017-07-04T07:30:00Z,30.3085,-88.1395,2.378,7.57,1111122 
DISL,ioos:station:DISL:CATA:1,2017-07-04T08:00:00Z,30.3085,-88.1395,2.406,7.56,1111122 
DISL,ioos:station:DISL:CATA:1,2017-07-04T08:30:00Z,30.3085,-88.1395,2.428,7.53,1111122 
DISL,ioos:station:DISL:CATA:1,2017-07-04T09:00:00Z,30.3085,-88.1395,2.447,7.59,1111122 
DISL,ioos:station:DISL:CATA:1,2017-07-04T09:30:00Z,30.3085,-88.1395,2.463,7.63,1111122 
DISL,ioos:station:DISL:CATA:1,2017-07-04T10:00:00Z,30.3085,-88.1395,2.48,7.53,1111122 
DISL,ioos:station:DISL:CATA:1,2017-07-04T10:30:00Z,30.3085,-88.1395,2.494,7.38,1111122 
DISL,ioos:station:DISL:CATA:1,2017-07-04T11:00:00Z,30.3085,-88.1395,2.498,6.97,1111122 
DISL,ioos:station:DISL:CATA:1,2017-07-04T11:30:00Z,30.3085,-88.1395,2.5,6.82,1111122 
DISL,ioos:station:DISL:CATA:1,2017-07-04T12:00:00Z,30.3085,-88.1395,2.507,6.73,1111122 
DISL,ioos:station:DISL:CATA:1,2017-07-04T12:30:00Z,30.3085,-88.1395,2.502,6.42,1111122 
DISL,ioos:station:DISL:CATA:1,2017-07-04T13:00:00Z,30.3085,-88.1395,2.495,6.46,1111122 
DISL,ioos:station:DISL:CATA:1,2017-07-04T13:30:00Z,30.3085,-88.1395,2.499,6.73,1111122 
DISL,ioos:station:DISL:CATA:1,2017-07-04T14:00:00Z,30.3085,-88.1395,2.502,6.5,1111122 
DISL,ioos:station:DISL:CATA:1,2017-07-04T14:30:00Z,30.3085,-88.1395,2.485,6.53,1111122 
DISL,ioos:station:DISL:CATA:1,2017-07-04T15:00:00Z,30.3085,-88.1395,2.477,6.97,1111122 
DISL,ioos:station:DISL:CATA:1,2017-07-04T15:30:00Z,30.3085,-88.1395,2.472,7.9,1111122 
DISL,ioos:station:DISL:CATA:1,2017-07-04T16:00:00Z,30.3085,-88.1395,2.459,8.26,1111122 
DISL,ioos:station:DISL:CATA:1,2017-07-04T16:30:00Z,30.3085,-88.1395,2.435,8.54,1111122 
DISL,ioos:station:DISL:CATA:1,2017-07-04T17:00:00Z,30.3085,-88.1395,2.399,7.84,1111122 
DISL,ioos:station:DISL:CATA:1,2017-07-04T17:30:00Z,30.3085,-88.1395,2.368,7.9,1111122 
DISL,ioos:station:DISL:CATA:1,2017-07-04T18:00:00Z,30.3085,-88.1395,2.329,7.95,1111122 
DISL,ioos:station:DISL:CATA:1,2017-07-04T18:30:00Z,30.3085,-88.1395,2.298,8.14,1111122 
DISL,ioos:station:DISL:CATA:1,2017-07-04T19:00:00Z,30.3085,-88.1395,2.268,8.31,1111122 
DISL,ioos:station:DISL:CATA:1,2017-07-04T19:30:00Z,30.3085,-88.1395,2.232,8.36,1111122 
DISL,ioos:station:DISL:CATA:1,2017-07-04T20:00:00Z,30.3085,-88.1395,2.209,8.3,1111122 
DISL,ioos:station:DISL:CATA:1,2017-07-04T20:30:00Z,30.3085,-88.1395,2.183,8.34,1111122 
DISL,ioos:station:DISL:CATA:1,2017-07-04T21:00:00Z,30.3085,-88.1395,2.177,8.52,1111122 
DISL,ioos:station:DISL:CATA:1,2017-07-04T21:30:00Z,30.3085,-88.1395,2.157,8.39,1111122 
DISL,ioos:station:DISL:CATA:1,2017-07-04T22:00:00Z,30.3085,-88.1395,2.138,8.19,1111122 
DISL,ioos:station:DISL:CATA:1,2017-07-04T22:30:00Z,30.3085,-88.1395,2.117,8.13,1111122 
DISL,ioos:station:DISL:CATA:1,2017-07-04T23:00:00Z,30.3085,-88.1395,2.118,8.07,1111122 
DISL,ioos:station:DISL:CATA:1,2017-07-04T23:30:00Z,30.3085,-88.1395,2.12,7.96,1111122 
DISL,ioos:station:DISL:CATA:1,2017-07-05T00:00:00Z,30.3085,-88.1395,2.124,7.64,1111122 
DISL,ioos:station:DISL:CATA:1,2017-07-05T00:30:00Z,30.3085,-88.1395,2.136,7.41,1111122 
DISL,ioos:station:DISL:CATA:1,2017-07-05T01:00:00Z,30.3085,-88.1395,2.141,7.46,1111122 
DISL,ioos:station:DISL:CATA:1,2017-07-05T01:30:00Z,30.3085,-88.1395,2.151,7.59,1111122 
DISL,ioos:station:DISL:CATA:1,2017-07-05T02:00:00Z,30.3085,-88.1395,2.164,7.63,1111122 
DISL,ioos:station:DISL:CATA:1,2017-07-05T02:30:00Z,30.3085,-88.1395,2.183,7.52,1111122 
DISL,ioos:station:DISL:CATA:1,2017-07-05T03:00:00Z,30.3085,-88.1395,2.212,7.42,1111122 
DISL,ioos:station:DISL:CATA:1,2017-07-05T03:30:00Z,30.3085,-88.1395,2.234,7.47,1111122 
DISL,ioos:station:DISL:CATA:1,2017-07-05T04:00:00Z,30.3085,-88.1395,2.247,7.55,1111122 
DISL,ioos:station:DISL:CATA:1,2017-07-05T04:30:00Z,30.3085,-88.1395,2.264,7.46,1111122 
DISL,ioos:station:DISL:CATA:1,2017-07-05T05:00:00Z,30.3085,-88.1395,2.282,7.44,1111122 
DISL,ioos:station:DISL:CATA:1,2017-07-05T05:30:00Z,30.3085,-88.1395,2.296,7.42,1111122 
DISL,ioos:station:DISL:CATA:1,2017-07-05T06:00:00Z,30.3085,-88.1395,2.309,7.17,1111122 
DISL,ioos:station:DISL:CATA:1,2017-07-05T06:30:00Z,30.3085,-88.1395,2.325,7.15,1111122 
DISL,ioos:station:DISL:CATA:1,2017-07-05T07:00:00Z,30.3085,-88.1395,2.341,7.24,1111122 
DISL,ioos:station:DISL:CATA:1,2017-07-05T07:30:00Z,30.3085,-88.1395,2.356,7.32,1111122 
DISL,ioos:station:DISL:CATA:1,2017-07-05T08:00:00Z,30.3085,-88.1395,2.367,7.25,1111122 
DISL,ioos:station:DISL:CATA:1,2017-07-05T08:30:00Z,30.3085,-88.1395,2.394,7.37,1111122 
DISL,ioos:station:DISL:CATA:1,2017-07-05T09:00:00Z,30.3085,-88.1395,2.427,7.41,1111122 
DISL,ioos:station:DISL:CATA:1,2017-07-05T09:30:00Z,30.3085,-88.1395,2.46,7.27,1111122 
DISL,ioos:station:DISL:CATA:1,2017-07-05T10:00:00Z,30.3085,-88.1395,2.47,7.18,1111122 
DISL,ioos:station:DISL:CATA:1,2017-07-05T10:30:00Z,30.3085,-88.1395,2.473,7.04,1111122 
DISL,ioos:station:DISL:CATA:1,2017-07-05T11:00:00Z,30.3085,-88.1395,2.513,7.17,1111122 
DISL,ioos:station:DISL:CATA:1,2017-07-05T11:30:00Z,30.3085,-88.1395,2.525,7.03,1111122 
DISL,ioos:station:DISL:CATA:1,2017-07-05T12:00:00Z,30.3085,-88.1395,2.547,6.73,1111122 
DISL,ioos:station:DISL:CATA:1,2017-07-05T12:30:00Z,30.3085,-88.1395,2.561,6.6,1111122 
DISL,ioos:station:DISL:CATA:1,2017-07-05T13:00:00Z,30.3085,-88.1395,2.559,6.59,1111122 
DISL,ioos:station:DISL:CATA:1,2017-07-05T13:30:00Z,30.3085,-88.1395,2.564,6.48,1111122 
DISL,ioos:station:DISL:CATA:1,2017-07-05T14:00:00Z,30.3085,-88.1395,2.577,6.72,1111122 
DISL,ioos:station:DISL:CATA:1,2017-07-05T14:30:00Z,30.3085,-88.1395,2.576,6.82,1111122 
DISL,ioos:station:DISL:CATA:1,2017-07-05T15:00:00Z,30.3085,-88.1395,2.572,7.1,1111122 
DISL,ioos:station:DISL:CATA:1,2017-07-05T15:30:00Z,30.3085,-88.1395,2.551,7.03,1111122 
DISL,ioos:station:DISL:CATA:1,2017-07-05T16:00:00Z,30.3085,-88.1395,2.525,6.94,1111122 
DISL,ioos:station:DISL:CATA:1,2017-07-05T16:30:00Z,30.3085,-88.1395,2.49,7.11,1111122 
DISL,ioos:station:DISL:CATA:1,2017-07-05T17:00:00Z,30.3085,-88.1395,2.457,6.65,1111122 
DISL,ioos:station:DISL:CATA:1,2017-07-05T17:30:00Z,30.3085,-88.1395,2.423,7.15,1111122 
DISL,ioos:station:DISL:CATA:1,2017-07-05T18:00:00Z,30.3085,-88.1395,2.384,7.55,1111122 
DISL,ioos:station:DISL:CATA:1,2017-07-05T18:30:00Z,30.3085,-88.1395,2.348,7.21,1111122 
DISL,ioos:station:DISL:CATA:1,2017-07-05T19:00:00Z,30.3085,-88.1395,2.319,7.62,1111122 
DISL,ioos:station:DISL:CATA:1,2017-07-05T19:30:00Z,30.3085,-88.1395,2.278,7.7,1111122 
DISL,ioos:station:DISL:CATA:1,2017-07-05T20:00:00Z,30.3085,-88.1395,2.251,7.97,1111122 
DISL,ioos:station:DISL:CATA:1,2017-07-05T20:30:00Z,30.3085,-88.1395,2.22,7.95,1111122 
DISL,ioos:station:DISL:CATA:1,2017-07-05T21:00:00Z,30.3085,-88.1395,2.193,7.82,1111122 
DISL,ioos:station:DISL:CATA:1,2017-07-05T21:30:00Z,30.3085,-88.1395,2.157,7.73,1111122 
DISL,ioos:station:DISL:CATA:1,2017-07-05T22:00:00Z,30.3085,-88.1395,2.131,7.84,1111122 
DISL,ioos:station:DISL:CATA:1,2017-07-05T22:30:00Z,30.3085,-88.1395,2.126,7.42,1111122 
DISL,ioos:station:DISL:CATA:1,2017-07-05T23:00:00Z,30.3085,-88.1395,2.111,7.27,1111122 
DISL,ioos:station:DISL:CATA:1,2017-07-05T23:30:00Z,30.3085,-88.1395,2.106,7.11,1111122 
DISL,ioos:station:DISL:CATA:1,2017-07-06T00:00:00Z,30.3085,-88.1395,2.103,7.15,1111122 
DISL,ioos:station:DISL:CATA:1,2017-07-06T00:30:00Z,30.3085,-88.1395,2.101,7.15,1111122 
DISL,ioos:station:DISL:CATA:1,2017-07-06T01:00:00Z,30.3085,-88.1395,2.106,7.25,1111122 
DISL,ioos:station:DISL:CATA:1,2017-07-06T01:30:00Z,30.3085,-88.1395,2.129,7.16,1111122 
DISL,ioos:station:DISL:CATA:1,2017-07-06T02:00:00Z,30.3085,-88.1395,2.146,7.13,1111122 
DISL,ioos:station:DISL:CATA:1,2017-07-06T02:30:00Z,30.3085,-88.1395,2.166,7.05,1111122 
DISL,ioos:station:DISL:CATA:1,2017-07-06T03:00:00Z,30.3085,-88.1395,2.179,7.03,1111122 
DISL,ioos:station:DISL:CATA:1,2017-07-06T03:30:00Z,30.3085,-88.1395,2.199,6.97,1111122 
DISL,ioos:station:DISL:CATA:1,2017-07-06T04:00:00Z,30.3085,-88.1395,2.221,6.9,1111122 
DISL,ioos:station:DISL:CATA:1,2017-07-06T04:30:00Z,30.3085,-88.1395,2.234,6.91,1111122 
DISL,ioos:station:DISL:CATA:1,2017-07-06T05:00:00Z,30.3085,-88.1395,2.25,7.01,1111122 
DISL,ioos:station:DISL:CATA:1,2017-07-06T05:30:00Z,30.3085,-88.1395,2.269,6.88,1111122 
DISL,ioos:station:DISL:CATA:1,2017-07-06T06:00:00Z,30.3085,-88.1395,2.284,6.83,1111122 
DISL,ioos:station:DISL:CATA:1,2017-07-06T06:30:00Z,30.3085,-88.1395,2.298,6.76,1111122 
DISL,ioos:station:DISL:CATA:1,2017-07-06T07:00:00Z,30.3085,-88.1395,2.314,6.86,1111122 
DISL,ioos:station:DISL:CATA:1,2017-07-06T07:30:00Z,30.3085,-88.1395,2.343,6.77,1111122 
DISL,ioos:station:DISL:CATA:1,2017-07-06T08:00:00Z,30.3085,-88.1395,2.366,6.76,1111122 
DISL,ioos:station:DISL:CATA:1,2017-07-06T08:30:00Z,30.3085,-88.1395,2.389,6.79,1111122 
DISL,ioos:station:DISL:CATA:1,2017-07-06T09:00:00Z,30.3085,-88.1395,2.407,6.79,1111122 
DISL,ioos:station:DISL:CATA:1,2017-07-06T09:30:00Z,30.3085,-88.1395,2.424,6.78,1111122 
DISL,ioos:station:DISL:CATA:1,2017-07-06T10:00:00Z,30.3085,-88.1395,2.46,6.97,1111122 
DISL,ioos:station:DISL:CATA:1,2017-07-06T10:30:00Z,30.3085,-88.1395,2.49,6.96,1111122 
DISL,ioos:station:DISL:CATA:1,2017-07-06T11:00:00Z,30.3085,-88.1395,2.514,6.97,1111122 
DISL,ioos:station:DISL:CATA:1,2017-07-06T11:30:00Z,30.3085,-88.1395,2.535,7.06,1111122 
DISL,ioos:station:DISL:CATA:1,2017-07-06T12:00:00Z,30.3085,-88.1395,2.559,6.88,1111122 
DISL,ioos:station:DISL:CATA:1,2017-07-06T12:30:00Z,30.3085,-88.1395,2.579,6.81,1111122 
DISL,ioos:station:DISL:CATA:1,2017-07-06T13:00:00Z,30.3085,-88.1395,2.59,6.7,1111122 
DISL,ioos:station:DISL:CATA:1,2017-07-06T13:30:00Z,30.3085,-88.1395,2.605,6.69,1111122 
DISL,ioos:station:DISL:CATA:1,2017-07-06T14:00:00Z,30.3085,-88.1395,2.602,6.64,1111122 
DISL,ioos:station:DISL:CATA:1,2017-07-06T14:30:00Z,30.3085,-88.1395,2.573,6.47,1111122 
DISL,ioos:station:DISL:CATA:1,2017-07-06T15:00:00Z,30.3085,-88.1395,2.565,6.45,1111122 
DISL,ioos:station:DISL:CATA:1,2017-07-06T15:30:00Z,30.3085,-88.1395,2.544,6.42,1111122 